SCP
0 0 0 0 0 0 0 0 0 0 0 0 0 0 0 0 0 0 0 0 0 0 0 0 0 0 0 0 0 0 0 0 0 0 0 0 0 0 0 0 0 0 0
0 0 0 0 0 0 0 0 0 0 0 0 0 0 0 0 0 0 0 0 0 0 0 0 0 0 0 0 0 0 0 0 0 0 0 0 0 0 0 0 0 0 0
0 0 0 0 0 0 0 0 0 0 0 0 0 0 0 0 0 0 0 0 0 0 0 0 0 0 0 0 0 0 0 0 0 0 0 0 0 0 0 0 0 0 0
0 0 0 0 0 0 0 0 0 0 0 0 0 0 0 0 0 0 0 0 0 0 0 0 0 0 0 0 0 0 0 0 0 0 0 0 0 0 0 0 0 0 0
0 0 0 0 0 0 0 0 0 0 0 0 0 0 0 0 0 0 0 0 0 0 0 0 0 0 0 0 0 0 0 0 0 0 0 0 0 0 0 0 0 0 0
0 0 0 0 0 0 0 0 0 0 0 0 0 0 0 0 0 0 0 0 0 0 0 0 0 0 0 0 0 0 0 0 0 0 0 0 0 0 0 0 0 0 0
0 0 0 0 0 0 0 0 0 0 0 0 0 0 0 0 0 0 0 0 0 0 0 0 0 0 0 0 0 0 0 0 0 0 0 0 0 0 0 0 0 0 0
0 0 0 0 0 0 0 0 0 0 0 0 0 0 0 0 0 0 0 0 0 0 0 0 0 0 0 0 0 0 0 0 0 0 0 0 0 0 0 0 0 0 0
0 0 0 0 0 0 0 0 0 0 0 0 0 0 0 0 0 0 0 0 0 0 0 0 0 0 0 0 0 0 0 0 0 0 0 0 0 0 0 0 0 0 0
0 0 0 0 0 0 0 0 0 0 0 0 0 0 0 0 0 0 0 0 0 0 0 0 0 0 0 0 0 0 0 0 0 0 0 0 0 0 0 0 0 0 0
0 0 0 0 0 0 0 0 0 0 0 0 0 0 0 0 0 0 0 0 0 0 0 0 0 0 0 0 0 0 0 0 0 0 0 0 0 0 0 0 0 0 0
0 0 0 0 0 0 0 0 0 0 0 0 0 0 0 0 0 0 0 0 0 0 0 0 0 0 0 0 0 0 0 0 0 0 0 0 0 0 0 0 0 0 0
0 0 0 0 0 0 0 0 0 0 0 0 0 0 0 0 0 0 0 0 0 0 0 0 0 0 0 0 0 0 0 0 0 0 0 0 0 0 0 0 0 0 0
0 0 0 0 0 0 0 0 0 0 0 0 0 0 0 0 0 0 0 0 0 0 0 0 0 0 0 0 0 0 0 0 0 0 0 0 0 0 0 0 0 0 0
0 0 0 0 0 0 0 0 0 0 0 0 0 0 0 0 0 0 0 0 0 0 0 0 0 0 0 0 0 0 0 0 0 0 0 0 0 0 0 0 0 0 0
0 0 0 0 0 0 0 0 0 0 0 0 0 0 0 0 0 0 0 0 0 0 0 0 0 0 0 0 0 0 0 0 0 0 0 0 0 0 0 0 0 0 0
0 0 0 0 0 0 0 0 0 0 0 0 0 0 0 0 0 0 0 0 0 0 0 0 0 0 0 0 0 0 0 0 0 0 0 0 0 0 0 0 0 0 0
0 0 0 0 0 0 0 0 0 0 0 0 0 0 0 0 0 0 0 0 0 0 0 0 0 0 0 0 0 0 0 0 0 0 0 0 0 0 0 0 0 0 0
0 0 0 0 0 0 0 0 0 0 0 0 0 0 0 0 0 0 0 0 0 0 0 0 0 0 0 0 0 0 0 0 0 0 0 0 0 0 0 0 0 0 0
0 0 0 0 0 0 0 0 0 0 0 0 0 0 0 0 0 0 0 0 0 0 0 0 0 0 0 0 0 0 0 0 0 0 0 0 0 0 0 0 0 0 0
0 0 0 0 0 0 0 0 0 0 0 0 0 0 0 0 0 0 0 0 0 0 0 0 0 0 0 0 0 0 0 0 0 0 0 0 0 0 0 0 0 0 0
0 0 0 0 0 0 0 0 0 0 0 0 0 0 0 0 0 0 0 0 0 0 0 0 0 0 0 0 0 0 0 0 0 0 0 0 0 0 0 0 0 0 0
0 0 0 0 0 0 0 0 0 0 0 0 0 0 0 0 0 0 0 0 0 0 0 0 0 0 0 0 0 0 0 0 0 0 0 0 0 0 0 0 0 0 0
0 0 0 0 0 0 0 0 0 0 0 0 0 0 0 0 0 0 0 0 0 0 0 0 0 0 0 0 0 0 0 0 0 0 0 0 0 0 0 0 0 0 0
0 0 0 0 0 0 0 0 0 0 0 0 0 0 0 0 0 0 0 0 0 0 0 0 0 0 0 0 0 0 0 0 0 0 0 0 0 0 0 0 0 0 0
0 0 0 0 0 0 0 0 0 0 0 0 0 0 0 0 0 0 0 0 0 0 0 0 0 0 0 0 0 0 0 0 0 0 0 0 0 0 0 0 0 0 0
Wind_Speed
5 4 3 3 3 3 2 1 1 1 1 1 1 1 2 2 2 2 2 2 2 2 2 1 1 2 1 1 1 1 1 1 1 1 2 3 3 3 4 3 3 4 7
5 4 4 3 3 3 3 2 2 1 1 1 1 2 2 3 2 2 3 3 3 3 3 3 2 1 1 1 1 0 0 1 2 1 2 2 3 3 3 3 3 4 5
5 5 4 4 3 3 2 2 2 2 2 2 2 2 3 3 3 3 3 3 4 4 4 4 4 3 2 2 1 1 1 1 2 2 2 2 2 3 3 3 4 3 4
6 5 5 4 4 3 3 3 2 2 2 3 3 3 3 3 3 3 3 4 5 6 6 6 6 5 4 3 2 2 1 2 2 2 3 3 3 3 2 2 2 2 2
6 5 5 4 4 4 4 4 3 3 3 3 3 4 3 3 4 4 4 4 5 6 7 7 8 9 10 7 5 4 2 2 2 2 3 2 2 2 1 1 2 2 3
6 6 5 4 4 4 4 4 4 4 4 4 4 5 5 5 7 7 4 4 5 6 7 7 7 7 8 9 10 10 8 4 3 2 2 2 2 2 1 0 1 1 1
6 6 5 5 4 4 5 5 5 5 5 5 5 5 6 7 7 7 6 5 6 7 7 6 6 7 6 7 8 9 9 8 5 4 4 4 3 2 2 1 2 2 2
6 6 5 5 5 4 5 5 5 5 5 5 5 6 6 7 7 6 5 6 7 7 7 7 7 8 8 7 7 9 9 9 8 6 5 5 5 4 2 1 1 2 2
7 6 5 5 5 5 5 5 4 5 5 5 6 6 7 7 7 6 4 5 7 8 8 9 8 8 10 8 6 7 7 7 9 9 8 6 6 5 4 1 0 0 1
7 6 6 5 5 5 5 5 5 5 5 6 7 7 7 7 7 7 5 4 6 6 7 8 12 10 9 9 6 6 6 6 5 6 5 4 4 5 3 4 3 2 1
7 7 6 5 5 5 6 6 6 6 7 7 7 7 7 7 7 8 8 3 5 5 5 6 7 8 8 8 6 6 4 2 3 3 4 4 3 3 3 4 4 4 4
8 7 7 6 5 6 6 6 6 6 7 7 6 6 6 6 7 7 8 8 6 5 5 6 6 5 6 6 5 5 4 3 2 2 3 3 3 3 3 3 4 4 4
9 8 7 7 6 6 6 6 5 4 4 5 5 5 5 5 6 7 7 6 7 5 6 7 5 2 3 4 4 3 3 2 3 3 3 4 3 4 2 2 2 1 1
9 8 7 7 7 6 4 4 3 3 3 4 4 4 5 4 4 4 5 5 5 5 5 6 5 2 2 3 2 1 3 4 4 3 3 3 2 2 3 3 3 2 1
8 8 7 7 7 6 5 4 3 4 4 2 3 3 3 4 4 5 2 2 2 3 1 3 2 2 2 2 3 3 3 2 3 3 2 2 2 2 2 3 3 3 3
8 7 6 6 6 6 7 7 11 9 9 9 9 5 6 7 6 6 5 5 4 2 1 2 2 2 2 2 2 2 2 3 3 3 2 3 3 2 2 2 3 3 3
7 6 5 5 6 6 6 6 7 6 7 8 7 7 7 7 6 5 4 3 1 2 1 2 2 2 2 2 2 2 2 3 3 2 2 2 3 3 3 3 3 3 4
7 7 6 5 5 5 6 6 5 6 7 6 6 6 6 6 5 4 3 3 3 2 1 1 1 1 1 2 2 2 2 2 1 2 2 3 3 3 4 4 3 5 5
6 6 5 5 5 5 5 5 5 6 5 6 7 7 6 6 6 3 3 2 1 1 1 1 1 1 1 1 2 2 2 2 2 3 2 3 3 4 4 4 4 3 5
5 6 6 5 5 6 5 5 5 5 5 5 5 5 6 6 4 4 3 1 0 1 1 1 1 1 1 1 1 1 1 1 1 2 3 3 3 4 4 5 5 5 4
6 7 7 6 5 5 5 5 5 5 5 5 4 4 1 3 3 3 2 1 1 1 0 0 0 0 0 1 1 1 2 2 2 3 3 3 4 4 4 4 5 5 5
6 6 6 5 5 5 5 5 4 4 5 5 5 6 4 3 2 2 2 1 1 1 1 1 1 1 1 1 1 2 2 3 3 4 4 4 4 4 4 4 5 5 5
6 7 6 5 5 5 5 4 4 4 4 4 4 4 4 3 2 2 1 1 1 1 1 0 1 1 1 1 1 2 3 3 4 5 5 5 5 4 4 5 6 6 6
6 7 6 6 5 5 5 4 4 4 4 4 4 4 4 3 3 2 2 2 1 1 1 1 0 1 1 2 2 1 3 4 5 4 6 6 6 5 5 5 6 7 6
6 6 6 6 5 5 5 4 4 4 4 4 4 4 4 3 3 3 2 2 2 1 1 1 0 0 1 2 2 2 4 3 4 7 6 6 6 6 7 7 6 7 7
6 6 5 5 5 4 5 4 4 4 4 4 4 4 3 3 3 3 2 2 2 2 1 1 1 1 2 2 1 2 1 1 3 6 8 7 6 6 6 7 9 8 8
Wind_Direction
156 152 148 148 149 149 146 131 101 62 49 32 33 35 31 28 30 31 17 3 5 5 349 341 336 314 301 278 256 248 230 210 193 128 83 80 74 70 81 91 100 92 86
141 139 138 139 139 134 124 113 114 105 81 68 57 44 46 48 43 38 26 27 25 20 11 8 353 335 343 327 311 279 119 155 159 144 106 93 93 96 89 82 82 91 97
135 133 127 130 127 115 109 105 105 106 89 71 63 53 46 50 52 48 44 43 41 36 29 26 19 19 26 39 19 37 97 123 128 138 122 97 98 91 92 84 78 62 87
127 126 124 125 124 122 117 113 112 110 98 82 73 64 58 57 58 59 58 57 56 52 47 40 33 31 30 35 51 48 76 108 111 122 119 113 107 93 84 88 94 84 64
129 124 121 126 123 121 118 111 105 105 104 95 91 84 74 65 50 51 70 68 66 65 59 53 53 52 46 36 33 36 47 70 99 108 108 107 94 94 88 103 96 101 84
131 124 122 124 128 124 117 111 104 97 90 90 85 81 71 59 38 32 41 75 73 68 64 63 69 64 69 67 62 54 43 45 63 80 90 94 85 82 72 41 69 59 79
129 127 129 131 126 120 117 109 103 100 97 93 88 84 80 62 46 42 37 71 72 64 61 56 56 58 57 72 80 81 67 54 43 43 64 53 63 52 26 59 56 38 40
134 132 131 130 123 119 112 104 103 102 99 96 92 89 85 69 49 42 42 78 74 68 63 59 60 55 45 44 68 70 65 57 51 55 55 44 44 36 36 67 107 140 136
138 137 136 134 128 125 115 109 110 110 105 101 95 91 86 76 45 28 18 89 82 75 65 55 52 61 30 17 64 72 76 83 80 74 67 72 62 37 358 347 44 174 110
138 135 133 132 131 126 119 113 111 112 109 104 95 88 86 78 51 27 358 89 89 89 82 74 56 45 33 17 57 66 67 65 74 93 94 105 88 77 38 3 351 345 357
133 129 128 127 128 124 117 110 115 115 108 101 99 94 87 80 74 44 16 51 85 88 84 79 67 47 42 29 35 56 42 16 75 84 90 86 79 67 56 44 12 356 358
133 131 132 133 133 125 120 115 115 118 120 115 113 108 100 91 73 64 46 34 26 79 77 78 78 60 57 44 47 32 335 303 69 73 66 59 50 46 54 49 36 24 15
132 128 126 125 122 123 125 127 130 135 134 129 128 120 111 108 102 91 80 61 43 65 75 74 84 105 129 98 67 349 320 20 48 54 51 46 42 36 30 69 90 90 85
135 132 132 131 126 119 122 129 132 133 134 131 128 122 119 120 114 122 129 128 132 119 113 125 143 123 88 81 112 63 43 30 16 38 43 41 36 35 17 7 0 358 7
141 139 139 136 128 120 103 68 78 71 45 63 112 121 123 118 79 42 38 83 75 77 126 141 127 119 100 79 68 48 29 35 24 19 21 27 23 20 17 11 352 336 340
149 149 146 142 139 137 128 107 58 62 67 57 43 50 87 84 102 92 76 65 52 350 287 113 94 71 60 57 46 51 41 26 10 7 10 7 358 350 352 353 342 337 336
152 148 145 146 147 147 143 139 132 105 81 70 64 65 83 107 113 114 113 116 127 253 196 92 78 61 42 37 32 23 26 32 351 345 355 355 345 336 338 338 336 334 330
156 147 151 153 155 154 150 148 146 146 145 134 109 101 115 123 129 137 160 190 158 177 98 78 79 67 44 20 21 12 5 8 341 333 348 350 343 337 338 335 339 345 327
160 154 153 150 151 151 152 153 149 149 143 138 138 134 144 150 153 168 216 236 115 120 103 81 48 35 35 32 11 356 349 353 352 326 340 340 335 331 335 331 335 346 309
149 141 150 153 156 158 159 157 152 153 150 149 150 143 155 172 159 153 173 186 155 95 82 87 56 14 5 359 346 328 325 345 330 308 330 327 325 323 326 321 325 323 319
149 149 161 165 159 158 158 160 161 161 156 153 142 122 192 185 153 142 148 157 173 144 113 77 115 252 281 304 314 318 319 333 334 328 329 328 327 326 322 321 321 319 323
154 157 166 163 156 156 160 164 161 156 155 153 145 144 176 210 161 161 161 156 165 165 150 227 257 299 350 334 338 332 326 334 339 331 326 318 311 313 316 319 323 323 320
158 155 155 152 148 148 166 160 153 155 156 155 151 150 159 175 171 167 170 167 168 170 156 225 287 353 27 346 330 332 339 345 339 331 318 312 310 311 312 314 312 312 317
160 160 157 154 154 157 159 156 155 158 155 151 151 155 161 169 175 173 186 172 172 158 152 171 316 32 8 317 305 334 23 1 329 310 308 306 308 311 310 310 309 315 312
158 159 156 154 156 157 157 158 157 157 156 154 157 162 162 168 174 175 174 163 172 160 158 171 152 301 287 291 315 11 52 19 326 316 295 289 299 306 309 309 308 308 307
156 156 156 154 155 157 159 161 162 163 161 161 165 167 173 179 177 173 171 169 179 166 189 211 253 274 279 267 35 56 90 302 298 300 295 292 296 304 314 305 305 301 300